DB0GMN-13 Weather Reports


time (UTC)temp
F
wind
direction
speed
knots
gust
knots
rain 1hr
in
rain 24hr
in
rain mn
in
humidity
%
barometer
mb
20260507085546 0 93 6.1 11.3 0.00 0.00 0.00 99 1014.3
20260507084542 0 52 2.6 9.6 0.00 0.00 0.00 89 1014.3
20260507083539 0 57 7.0 12.2 0.00 0.00 0.00 68 1014.1
20260507082535 0 75 4.3 9.6 0.00 0.00 0.00 1014.1
20260507081531 0 27 10.4 15.6 0.00 0.00 0.00 1014.0
20260507080528 0 41 7.8 14.8 0.00 0.00 0.00 1013.9
20260507075525 30 28 7.8 12.2 0.00 0.00 0.00 93 1013.8
20260507074541 30 45 7.8 13.0 0.00 0.00 0.00 93 1013.9
20260507073518 30 25 6.1 11.3 0.00 0.00 0.00 98 1014.0
20260507072613 30 46 6.1 9.6 0.00 0.00 0.00 96 1013.9
20260507071608 30 40 6.1 9.6 0.00 0.00 0.00 96 1013.8
20260507070605 30 40 3.5 7.8 0.00 0.00 0.00 97 1013.6
20260507065602 30 37 11.3 14.8 0.00 0.00 0.00 93 1013.6
20260507064558 30 26 8.7 13.0 0.00 0.00 0.00 93 1013.5
20260507063614 30 42 8.7 12.2 0.00 0.00 0.00 97 1013.5
20260507062611 30 39 8.7 12.2 0.00 0.00 0.00 99 1013.4
20260507061545 30 34 8.7 13.0 0.00 0.00 0.00 99 1013.1
20260507060541 30 68 7.0 9.6 0.00 0.00 0.00 99 1013.2
20260507055536 30 59 7.8 12.2 0.00 0.00 0.00 99 1013.1
20260507054532 30 66 5.2 9.6 0.00 0.00 0.00 99 1013.1
20260507053528 30 30 7.8 11.3 0.00 0.00 0.00 99 1012.9
20260507052526 30 56 5.2 9.6 0.00 0.00 0.00 99 1012.8
20260507051522 30 58 5.2 9.6 0.00 0.00 0.00 99 1012.7
20260507050517 30 54 3.5 7.8 0.00 0.00 0.00 99 1012.6
20260507045614 30 40 4.3 7.0 0.00 0.00 0.00 99 1012.5
20260507044629 30 78 4.3 7.8 0.00 0.00 0.00 98 1012.6
20260507043606 30 48 6.1 9.6 0.00 0.00 0.00 96 1012.4
20260507042603 30 30 4.3 7.0 0.00 0.00 0.00 98 1012.3
20260507041600 30 38 6.1 9.6 0.00 0.00 0.00 93 1012.4
20260507040556 30 34 8.7 12.2 0.00 0.00 0.00 95 1012.2
20260507035553 30 40 7.8 11.3 0.00 0.00 0.00 98 1012.2
20260507034549 30 42 8.7 13.0 0.00 0.00 0.00 95 1011.9
20260507033545 30 30 9.6 13.9 0.00 0.00 0.00 95 1011.9
20260507032601 30 45 8.7 11.3 0.00 0.00 0.00 94 1012.0
20260507031537 30 46 7.8 9.6 0.00 0.00 0.00 95 1011.9
20260507030533 30 51 4.3 7.0 0.00 0.00 0.00 94 1012.1
20260507025530 30 39 5.2 9.6 0.00 0.00 0.00 95 1012.0
20260507024526 30 33 7.0 9.6 0.00 0.00 0.00 95 1011.9
20260507023522 30 37 8.7 13.0 0.00 0.00 0.00 97 1011.8
20260507022517 30 37 8.7 12.2 0.00 0.00 0.00 99 1011.7
20260507021634 30 44 7.8 11.3 0.00 0.00 0.00 99 1011.7
20260507020610 30 40 5.2 9.6 0.00 0.00 0.00 99 1011.6
20260507015604 30 43 7.0 11.3 0.00 0.00 0.00 99 1011.6
20260507014622 30 41 7.8 11.3 0.00 0.00 0.00 99 1011.5
20260507013557 30 42 7.0 12.2 0.00 0.00 0.00 99 1011.4
20260507012553 30 38 8.7 13.0 0.00 0.00 0.00 99 1011.2
20260507011551 30 38 7.8 12.2 0.00 0.00 0.00 99 1011.3
20260507010546 30 70 6.1 9.6 0.00 0.00 0.00 99 1011.1
20260507005541 30 64 7.8 9.6 0.00 0.00 0.00 99 1011.1
20260507004537 30 41 8.7 12.2 0.00 0.00 0.00 99 1011.1
20260507003533 30 30 8.7 11.3 0.00 0.00 0.00 97 1011.0
20260507002551 30 33 9.6 13.0 0.00 0.00 0.00 94 1011.0
20260507001527 30 38 7.0 11.3 0.00 0.00 0.00 93 1011.0
20260507000524 30 45 7.8 11.3 0.00 0.00 0.00 99 1011.0
20260506235520 30 41 7.8 12.2 0.00 0.00 0.00 96 1011.1
20260506234517 30 55 9.6 13.9 0.00 0.00 0.00 94 1010.8
20260506233612 30 36 7.0 13.0 0.00 0.00 0.00 96 1010.8
20260506232608 30 34 7.8 12.2 0.00 0.00 0.00 95 1010.8
20260506231603 30 52 7.8 12.2 0.00 0.00 0.00 93 1010.8
20260506230600 30 34 9.6 13.0 0.00 0.00 0.00 98 1010.9
20260506225557 30 34 9.6 12.2 0.00 0.00 0.00 99 1010.7
20260506224553 30 56 7.8 12.2 0.00 0.00 0.00 97 1010.5
20260506223609 30 27 7.8 12.2 0.00 0.00 0.00 96 1010.6
20260506222544 30 33 8.7 11.3 0.00 0.00 0.00 93 1010.5
20260506221540 30 45 7.0 9.6 0.00 0.00 0.00 97 1010.6
20260506220556 30 50 6.1 9.6 0.00 0.00 0.00 95 1010.6
20260506215532 30 49 5.2 11.3 0.00 0.00 0.00 99 1010.5
20260506214527 30 60 2.6 5.2 0.00 0.00 0.00 99 1010.4
20260506213523 30 168 4.3 7.0 0.00 0.00 0.00 99 1010.4
20260506212521 30 115 4.3 7.0 0.00 0.00 0.00 99 1010.3
20260506211517 30 7 4.3 12.2 0.00 0.00 0.00 99 1010.2
20260506210633 30 151 4.3 11.3 0.00 0.00 0.00 99 1009.9
20260506205629 30 51 5.2 15.6 0.00 0.00 0.00 99 1010.2
20260506204605 30 71 5.2 12.2 0.00 0.00 0.00 96 1010.2
20260506203600 30 15 4.3 9.6 0.00 0.00 0.00 93 1010.2
20260506202557 30 306 3.5 7.8 0.00 0.00 0.00 93 1010.1
20260506201554 30 108 5.2 11.3 0.00 0.00 0.00 93 1010.0
20260506200610 30 116 4.3 7.8 0.00 0.00 0.00 93 1010.0
20260506195547 30 129 2.6 6.1 0.00 0.00 0.00 93 1010.0
20260506194545 30 85 2.6 7.8 0.00 0.00 0.00 93 1009.9
20260506193539 30 103 2.6 7.0 0.00 0.00 0.00 93 1009.9
20260506192535 30 78 1.7 6.1 0.00 0.00 0.00 95 1010.1
20260506191531 30 38 2.6 7.8 0.00 0.00 0.00 96 1010.0
20260506190528 30 127 2.6 7.0 0.00 0.00 0.00 95 1009.9
20260506185524 30 33 3.5 9.6 0.00 0.00 0.00 93 1009.8
20260506184521 30 39 5.2 14.8 0.00 0.00 0.00 93 1009.7
20260506183516 30 82 3.5 9.6 0.00 0.00 0.00 93 1009.8
20260506182612 30 116 2.6 9.6 0.00 0.00 0.00 93 1009.5
20260506181607 30 316 4.3 9.6 0.00 0.00 0.00 93 1009.4
20260506180603 30 0 3.5 7.0 0.00 0.00 0.00 93 1009.2
20260506175559 30 75 2.6 7.0 0.00 0.00 0.00 93 1009.3
20260506174554 30 75 3.5 7.8 0.00 0.00 0.00 93 1009.2
20260506173552 30 91 2.6 9.6 0.00 0.00 0.00 96 1009.1
20260506172548 30 94 4.3 9.6 0.00 0.00 0.00 96 1008.9
20260506171545 30 342 2.6 7.0 0.00 0.00 0.00 96 1009.0
20260506170540 30 219 4.3 13.0 0.00 0.00 0.00 94 1008.7
20260506165535 30 55 3.5 12.2 0.00 0.00 0.00 93 1008.7
20260506164531 30 11 7.0 17.4 0.00 0.00 0.00 96 1008.7
20260506163529 30 63 8.7 15.6 0.00 0.00 0.00 95 1008.5
20260506162524 30 106 7.0 13.0 0.00 0.00 0.00 97 1008.4
20260506161521 30 264 6.1 13.9 0.00 0.00 0.00 95 1008.3
20260506160518 30 11 7.0 14.8 0.00 0.00 0.00 95 1008.3
20260506155515 30 96 5.2 11.3 0.00 0.00 0.00 93 1008.4
20260506154611 30 25 7.0 12.2 0.00 0.00 0.00 95 1008.3
20260506153607 30 69 5.2 12.2 0.00 0.00 0.00 99 1008.3
20260506152603 30 137 3.5 7.0 0.00 0.00 0.00 99 1008.4
20260506151558 30 118 5.2 13.0 0.00 0.00 0.00 99 1008.3
20260506150555 30 58 2.6 7.0 0.00 0.00 0.00 93 1008.3
20260506145552 30 62 3.5 9.6 0.00 0.00 0.00 93 1008.2
20260506144548 0 32 3.5 7.8 0.00 0.00 0.00 1008.1
20260506143544 0 242 5.2 9.6 0.00 0.00 0.00 1008.2
20260506142600 0 45 2.6 7.8 0.00 0.00 0.00 1008.3
20260506141535 0 104 3.5 9.6 0.00 0.00 0.00 1008.4
20260506140530 0 111 2.6 11.3 0.00 0.00 0.00 99 1008.2
20260506135526 13 143 3.5 7.8 0.00 0.00 0.00 99 1008.2
20260506134522 0 93 3.5 11.3 0.00 0.00 0.00 1008.3
20260506133519 0 127 4.3 12.2 0.00 0.00 0.00 99 1008.1
20260506132515 13 90 3.5 7.8 0.00 0.00 0.00 1007.9
20260506131612 0 125 6.1 12.2 0.00 0.00 0.00 1007.9
20260506130628 0 39 3.5 9.6 0.00 0.01 0.00 1007.8
20260506125603 0 78 3.5 7.8 0.00 0.01 0.00 1007.7
20260506124559 0 309 3.5 7.0 0.00 0.01 0.00 1007.7
20260506123616 0 33 3.5 7.0 0.00 0.01 0.00 1007.7
20260506122553 0 6 5.2 13.9 0.00 0.01 0.00 1007.6
20260506121551 0 129 8.7 17.4 0.00 0.02 0.00 99 1007.5
20260506120546 0 60 6.1 9.6 0.00 0.02 0.00 99 1007.4
20260506115543 0 129 5.2 11.3 0.00 0.04 0.00 76 1007.3
20260506114539 0 30 7.8 13.0 0.00 0.04 0.00 99 1007.2
20260506113535 0 98 4.3 9.6 0.00 0.04 0.00 76 1007.3
20260506112530 0 7 7.8 13.9 0.00 0.05 0.00 99 1007.3
20260506111547 0 118 7.0 14.8 0.00 0.05 0.00 90 1007.3
20260506110523 0 19 8.7 18.2 0.00 0.05 0.00 99 1007.2
20260506105540 0 89 7.8 13.9 0.00 0.06 0.00 99 1007.1
20260506104516 0 48 7.0 13.9 0.00 0.06 0.00 99 1007.2
20260506103612 0 95 6.1 11.3 0.00 0.06 0.00 99 1007.2
20260506102607 0 34 7.0 13.9 0.00 0.06 0.00 88 1007.1
20260506101623 0 63 9.6 14.8 0.00 0.07 0.00 1007.2
20260506100559 0 102 6.1 13.0 0.00 0.07 0.00 1007.1
20260506095554 0 27 5.2 11.3 0.00 0.07 0.00 1007.1
20260506094550 0 336 7.8 15.6 0.00 0.07 0.00 1007.1
20260506093547 0 38 7.0 13.9 0.00 0.07 0.00 99 1007.1
20260506092603 0 111 5.2 12.2 0.00 0.07 0.00 99 1007.0
20260506091540 0 25 7.0 12.2 0.00 0.07 0.00 1006.9
20260506090536 0 0 6.1 13.0 0.00 0.08 0.00 1007.0